TimeEST,TemperatureF,Dew PointF,Humidity,Sea Level PressureIn,VisibilityMPH,Wind Direction,Wind SpeedMPH,Gust SpeedMPH,PrecipitationIn,Events,Conditions,WindDirDegrees,DateUTC
12:15 AM,40.1,39.7,99,30.24,7.0,East,5.8,-,N/A,,Light Drizzle,80,2013-12-09 05:15:00
12:35 AM,40.1,39.7,99,30.25,5.0,Calm,Calm,-,N/A,,Drizzle,0,2013-12-09 05:35:00
12:55 AM,40.1,39.6,98,30.23,1.5,ENE,3.5,-,N/A,,Unknown,70,2013-12-09 05:55:00
1:15 AM,40.1,39.6,98,30.22,1.8,East,5.8,-,N/A,Rain,Light Rain,100,2013-12-09 06:15:00
1:35 AM,40.1,39.7,99,30.22,2.5,East,3.5,-,N/A,Rain,Light Rain,90,2013-12-09 06:35:00
1:55 AM,40.1,39.9,99,30.21,7.0,East,3.5,-,N/A,Rain,Rain,80,2013-12-09 06:55:00
2:15 AM,40.1,39.6,98,30.20,3.0,ENE,4.6,-,N/A,Rain,Light Rain,60,2013-12-09 07:15:00
2:35 AM,40.1,39.7,99,30.19,10.0,ENE,3.5,-,N/A,,Overcast,70,2013-12-09 07:35:00
2:55 AM,40.3,39.9,99,30.20,10.0,ENE,3.5,-,N/A,,Overcast,60,2013-12-09 07:55:00
3:15 AM,40.3,40.1,99,30.21,2.5,Calm,Calm,-,N/A,,Overcast,0,2013-12-09 08:15:00
3:35 AM,40.5,40.1,99,30.22,2.0,Calm,Calm,-,N/A,,Drizzle,0,2013-12-09 08:35:00
3:55 AM,40.3,40.1,99,30.19,2.0,Calm,Calm,-,N/A,Rain,Rain,0,2013-12-09 08:55:00
4:15 AM,40.3,40.1,99,30.18,3.0,Calm,Calm,-,N/A,Rain,Rain,0,2013-12-09 09:15:00
4:35 AM,40.5,40.3,99,30.18,3.0,NE,4.6,-,N/A,Rain,Rain,40,2013-12-09 09:35:00
4:55 AM,40.3,40.1,99,30.16,5.0,NE,4.6,-,N/A,Rain,Rain,40,2013-12-09 09:55:00
5:35 AM,40.5,40.3,99,30.16,7.0,Calm,Calm,-,N/A,Rain,Light Rain,0,2013-12-09 10:35:00
5:55 AM,40.5,40.3,99,30.15,10.0,ESE,3.5,-,N/A,,Overcast,120,2013-12-09 10:55:00
6:15 AM,40.5,40.1,99,30.16,5.0,Calm,Calm,-,N/A,Rain,Rain,0,2013-12-09 11:15:00
6:35 AM,40.6,40.3,99,30.15,3.0,Calm,Calm,-,N/A,Rain,Light Rain,0,2013-12-09 11:35:00
6:55 AM,40.5,40.1,99,30.16,3.0,Calm,Calm,-,N/A,,Overcast,0,2013-12-09 11:55:00
7:15 AM,40.6,40.3,99,30.16,2.0,Calm,Calm,-,N/A,Rain,Light Rain,0,2013-12-09 12:15:00
7:35 AM,41.0,40.5,98,30.17,2.5,North,3.5,-,N/A,Rain,Light Rain,360,2013-12-09 12:35:00
7:55 AM,41.0,40.5,98,30.17,2.5,Calm,Calm,-,N/A,Rain,Light Rain,0,2013-12-09 12:55:00
8:15 AM,41.0,40.6,99,30.16,5.0,Calm,Calm,-,N/A,Rain,Light Rain,0,2013-12-09 13:15:00
8:35 AM,41.2,41.0,99,30.16,3.0,Calm,Calm,-,N/A,Rain,Rain,0,2013-12-09 13:35:00
8:55 AM,41.4,41.0,99,30.17,4.0,Calm,Calm,-,N/A,Rain,Rain,0,2013-12-09 13:55:00
9:15 AM,41.7,41.2,98,30.16,3.0,Calm,Calm,-,N/A,Rain,Rain,0,2013-12-09 14:15:00
9:35 AM,41.9,41.4,98,30.17,7.0,Calm,Calm,-,N/A,,Drizzle,0,2013-12-09 14:35:00
9:55 AM,42.1,41.9,99,30.18,5.0,Calm,Calm,-,N/A,,Light Drizzle,0,2013-12-09 14:55:00
10:15 AM,42.3,41.9,99,30.18,7.0,Calm,Calm,-,N/A,Rain,Light Rain,0,2013-12-09 15:15:00
10:35 AM,42.4,42.1,99,30.17,3.0,Calm,Calm,-,N/A,Rain,Light Rain,0,2013-12-09 15:35:00
10:55 AM,42.6,42.3,99,30.17,5.0,Calm,Calm,-,N/A,Rain,Rain,0,2013-12-09 15:55:00
11:15 AM,43.2,42.8,99,30.17,7.0,Calm,Calm,-,N/A,Rain,Rain,0,2013-12-09 16:15:00
11:35 AM,43.5,43.0,98,30.15,2.5,Calm,Calm,-,N/A,Rain,Rain,0,2013-12-09 16:35:00
11:55 AM,43.5,43.2,99,30.15,4.0,Calm,Calm,-,N/A,Rain,Rain,0,2013-12-09 16:55:00
12:15 PM,44.1,43.7,99,30.14,4.0,Calm,Calm,-,N/A,Rain,Light Rain,0,2013-12-09 17:15:00
12:35 PM,44.6,44.1,98,30.13,2.5,Calm,Calm,-,N/A,Rain,Rain,0,2013-12-09 17:35:00
12:55 PM,44.6,44.2,99,30.12,5.0,Calm,Calm,-,N/A,Rain,Light Rain,0,2013-12-09 17:55:00
1:15 PM,45.0,44.6,99,30.11,10.0,Calm,Calm,-,N/A,,Overcast,0,2013-12-09 18:15:00
1:35 PM,45.5,44.8,97,30.10,10.0,Calm,Calm,-,N/A,Rain,Light Rain,0,2013-12-09 18:35:00
1:55 PM,46.0,45.5,98,30.10,10.0,Calm,Calm,-,N/A,Rain,Light Rain,0,2013-12-09 18:55:00
2:15 PM,46.6,45.9,97,30.09,10.0,Calm,Calm,-,N/A,,Overcast,0,2013-12-09 19:15:00
2:35 PM,46.9,46.4,98,30.09,10.0,SW,4.6,-,N/A,,Overcast,220,2013-12-09 19:35:00
2:55 PM,46.9,46.4,98,30.09,10.0,SW,3.5,-,N/A,,Overcast,220,2013-12-09 19:55:00
3:15 PM,46.9,46.4,98,30.09,10.0,SSW,3.5,-,N/A,,Light Drizzle,210,2013-12-09 20:15:00
3:35 PM,47.3,46.8,98,30.08,10.0,Calm,Calm,-,N/A,,Overcast,0,2013-12-09 20:35:00
3:55 PM,47.5,46.8,97,30.08,10.0,Calm,Calm,-,N/A,,Overcast,0,2013-12-09 20:55:00
4:15 PM,47.5,46.9,98,30.08,10.0,Calm,Calm,-,N/A,,Overcast,0,2013-12-09 21:15:00
4:35 PM,47.7,47.1,98,30.08,10.0,Calm,Calm,-,N/A,,Overcast,0,2013-12-09 21:35:00
4:55 PM,47.7,47.1,98,30.08,10.0,Calm,Calm,-,N/A,,Overcast,0,2013-12-09 21:55:00
5:15 PM,47.5,46.9,98,30.09,10.0,Calm,Calm,-,N/A,,Overcast,0,2013-12-09 22:15:00
5:35 PM,47.3,46.8,98,30.09,10.0,SW,4.6,-,N/A,,Overcast,220,2013-12-09 22:35:00
5:55 PM,47.3,46.8,98,30.09,10.0,WSW,4.6,-,N/A,,Overcast,240,2013-12-09 22:55:00
6:15 PM,47.5,47.1,99,30.09,7.0,SW,4.6,-,N/A,,Overcast,220,2013-12-09 23:15:00
6:35 PM,47.3,46.9,99,30.09,2.5,Calm,Calm,-,N/A,,Overcast,0,2013-12-09 23:35:00
6:55 PM,47.3,46.9,99,30.10,2.0,Calm,Calm,-,N/A,,Overcast,0,2013-12-09 23:55:00
7:15 PM,47.3,46.8,98,30.09,1.2,Calm,Calm,-,N/A,,Overcast,0,2013-12-10 00:15:00
7:35 PM,47.3,46.9,99,30.09,1.2,Calm,Calm,-,N/A,,Overcast,0,2013-12-10 00:35:00
7:55 PM,47.3,47.3,100,30.10,1.2,Calm,Calm,-,N/A,,Overcast,0,2013-12-10 00:55:00
8:15 PM,47.3,46.9,99,30.09,0.5,Calm,Calm,-,N/A,Fog,Fog,0,2013-12-10 01:15:00
8:35 PM,46.9,46.8,99,30.10,0.2,Calm,Calm,-,N/A,Fog,Fog,0,2013-12-10 01:35:00
8:55 PM,46.9,46.8,99,30.08,0.2,Calm,Calm,-,N/A,Fog,Fog,0,2013-12-10 01:55:00
9:15 PM,46.8,46.8,100,30.07,0.2,Calm,Calm,-,N/A,Fog,Fog,0,2013-12-10 02:15:00
9:35 PM,46.9,46.9,100,30.07,0.2,Calm,Calm,-,N/A,Fog,Fog,0,2013-12-10 02:35:00
9:55 PM,46.8,46.8,100,30.07,0.2,Calm,Calm,-,N/A,Fog,Fog,0,2013-12-10 02:55:00
10:15 PM,46.8,46.8,100,30.07,0.2,Calm,Calm,-,N/A,Fog,Fog,0,2013-12-10 03:15:00
10:35 PM,46.8,46.8,100,30.07,0.2,Calm,Calm,-,N/A,Fog,Fog,0,2013-12-10 03:35:00
10:55 PM,46.8,46.8,100,30.06,0.5,Calm,Calm,-,N/A,Fog,Fog,0,2013-12-10 03:55:00
11:15 PM,46.9,46.9,100,30.05,0.2,Calm,Calm,-,N/A,Fog,Fog,0,2013-12-10 04:15:00
11:35 PM,47.1,47.1,100,30.04,0.2,Calm,Calm,-,N/A,Fog,Fog,0,2013-12-10 04:35:00
11:55 PM,47.3,47.3,100,30.04,0.2,Calm,Calm,-,N/A,Fog,Fog,0,2013-12-10 04:55:00